Location: Moy Burn
(57.3833°N, 4.0667°W)
Time: 11:48:38
(UTC+00:00)

Lacrosse 5 - Pass Details

Date: 08 August 2020
Orbit: 717 x 720 km, 57.0° (Epoch: 20 September)

Event Time Altitude Azimuth Distance (km) Brightness Sun altitude
Rises 21:33:34 0° 286° (WNW) 3,130 6.2 -9.0°
Reaches altitude 10° 21:35:59 10° 283° (WNW) 2,208 5.3 -9.2°
Maximum altitude 21:40:58 59° 205° (SSW) 831 2.1 -9.6°
Enters shadow 21:45:31 12° 128° (SE) 2,043 3.6 -10.0°
